一网星座-0234星 (ONEWEB-0234 )

导读

ONEWEB-0234是英国OneWeb星座中的一颗低轨通信卫星,于2021年5月28日发射入轨,运行在约1200公里的近地轨道。它属于OneWeb一期星座组网卫星,采用弯管式架构,依托全球地面关口站实现网络连接,通过Ku/Ka波段提供宽带通信服务,旨在为全球偏远地区提供互联网接入,且寿命结束后会自动离轨,符合空间碎片减缓要求。

基本信息
目录编号:
48783
目录名称:
ONEWEB-0234
国际标识:
2021-045S
轨道中心:
EARTH
卫星名称:
一网星座-0234星
卫星全名:
一网星座-0234星 (ONEWEB-0234 )
卫星状态:
在轨 (已飞行1843 天)
发射日期:
2021-05-28 UTC
国别 :
英国 (GB)
星等 :
--
轨道信息
数据来源 国际轨道数据 AOE轨道数据
星历时间 2026-06-14T01:43:57+0800
16小时前
查看轨道信息
2026-06-12T04:00:00+0800
2天前
查看轨道信息
半长轴 7579.908km 7579.9km
偏心率 0.0002669 0.0002307
轨道倾角 87.901° 87.901°
近地点辐角 112.435° 110.982°
升交点赤经 259.865° 260.244°
平近点角 247.707° 229.804°
近地点 1199.747km 1200.014km
远地点 1203.795km 1203.512km
周期 109.460分钟 109.460分钟
每日圈数 13.155487 13.155506
详细信息
平衡模式:
三轴稳定
覆盖范围:
全球
运营商:
一网卫星公司
运营商所在国:
英国
制造商(研发单位):
一网卫星公司
制造商所在国:
英国
使用方式:
暂无
卫星简介
OneWeb卫星网络由648颗重约125公斤的微型卫星组成,运行在1200公里的轨道上。 每颗卫星都能够提供至少每秒8千兆位的吞吐量,以使用其高吞吐量的Ku频段有效载荷为家庭和移动平台提供互联网接入。该卫星仍在工作。
2D轨道图
3D轨道图
轨道高度分析图
轨道倾角分析图
轨道综合分析图
查看轨道综合分析图